User: anonymous   Login
Location: Vanderbilt Beach
(26.2700°N, 81.7900°W)
Time: 00:21:47
(UTC-05:00)
Language:

UWE-3 - Orbit

View from above orbital plane
View from above orbital plane
View from above satellite
View from above satellite

Ground track
Ground track

The orbit data is extracted from the following two-line orbital elements,

1 39446U 13066AG  20330.47408226 +.00000368 +00000-0 +54893-4 0  9993
2 39446 097.6145 311.3544 0070668 143.5486 217.0568 14.78630142376369
Epoch (UTC): 25 November 2020 11:22:40
Eccentricity: 0.0070668
inclination: 97.6145°
perigee height: 584 km
apogee height: 683 km
right ascension of ascending node: 311.3544°
argument of perigee: 143.5486°
revolutions per day: 14.78630142
mean anomaly at epoch: 217.0568°
orbit number at epoch: 37636

The dashed part of the orbit path shows where the satellite is in the earth's shadow,  

DLR